FW8164 Weather Reports


time (UTC)temp
C
wind
direction
speed
KPH
gust
KPH
rain 1hr
cm
rain 24hr
cm
rain mn
cm
humidity
%
barometer
mb
20260507073047 12 0 0.0 3.2 0.00 0.00 0.00 84 1021.8
20260507071547 12 289 0.0 4.8 0.00 0.00 0.00 84 1021.8
20260507070046 12 292 1.6 4.8 0.00 0.00 0.00 84 1021.5
20260507064551 12 0 0.0 3.2 0.00 0.00 0.00 84 1021.7
20260507063049 12 0 0.0 1.6 0.00 0.00 0.00 84 1021.8
20260507061545 12 275 0.0 3.2 0.00 0.00 0.00 84 1021.8
20260507060049 12 305 1.6 3.2 0.00 0.00 0.00 84 1021.7
20260507054544 12 0 0.0 1.6 0.00 0.00 0.00 84 1021.7
20260507053043 12 0 0.0 4.8 0.00 0.00 0.00 84 1021.8
20260507051544 12 0 0.0 1.6 0.00 0.00 0.00 84 1021.8
20260507050043 12 0 0.0 4.8 0.00 0.00 0.00 83 1021.7
20260507044555 12 0 1.6 11.3 0.00 0.00 0.00 82 1021.6
20260507043100 12 271 1.6 12.9 0.00 0.00 0.00 82 1021.4
20260507041549 12 0 0.0 3.2 0.00 0.00 0.00 83 1021.5
20260507040045 12 0 0.0 3.2 0.00 0.00 0.00 83 1021.5
20260507034544 12 0 0.0 3.2 0.00 0.00 0.00 81 1021.2
20260507033048 13 299 0.0 3.2 0.00 0.00 0.00 79 1021.0
20260507031549 14 263 0.0 12.9 0.00 0.00 0.00 77 1020.5
20260507030045 15 229 1.6 9.7 0.00 0.00 0.00 75 1020.5
20260507024551 15 287 3.2 8.0 0.00 0.00 0.00 74 1020.4
20260507023052 16 221 1.6 9.7 0.00 0.00 0.00 71 1020.2
20260507021541 16 284 3.2 17.7 0.00 0.00 0.00 72 1020.5
20260507020051 17 286 4.8 14.5 0.00 0.00 0.00 70 1020.6
20260507014546 17 300 4.8 14.5 0.00 0.00 0.00 68 1020.6
20260507013045 18 272 3.2 14.5 0.00 0.00 0.00 68 1020.4
20260507011547 18 196 6.4 16.1 0.00 0.00 0.00 66 1020.5
20260507010046 18 284 3.2 24.1 0.00 0.00 0.00 66 1020.6
20260507004544 20 162 1.6 12.9 0.00 0.00 0.00 66 1020.6
20260507003045 19 0 3.2 20.9 0.00 0.00 0.00 68 1020.6
20260507001608 20 292 1.6 16.1 0.00 0.00 0.00 66 1020.6
20260507000052 19 255 8.0 17.7 0.00 0.00 0.00 66 1020.6
20260506234554 20 265 9.7 20.9 0.00 0.00 0.00 65 1020.5
20260506233050 20 287 1.6 12.9 0.00 0.00 0.00 64 1020.5
20260506231549 20 291 6.4 16.1 0.00 0.00 0.00 64 1020.5
20260506230104 21 295 3.2 12.9 0.00 0.00 0.00 65 1020.5
20260506224548 21 313 4.8 14.5 0.00 0.00 0.00 63 1020.6
20260506223049 21 292 1.6 14.5 0.00 0.00 0.00 64 1020.7
20260506221603 21 77 4.8 12.9 0.00 0.00 0.00 63 1020.7
20260506220044 20 262 0.0 9.7 0.00 0.00 0.00 66 1020.7
20260506214555 21 181 4.8 11.3 0.00 0.00 0.00 65 1020.7
20260506213050 20 227 1.6 12.9 0.00 0.00 0.00 66 1020.9
20260506211548 20 0 3.2 12.9 0.00 0.00 0.00 66 1020.8
20260506210054 20 213 4.8 12.9 0.00 0.00 0.00 67 1020.7
20260506204546 19 228 1.6 9.7 0.00 0.00 0.00 69 1021.0
20260506203044 20 209 1.6 9.7 0.00 0.00 0.00 68 1021.3
20260506201545 18 253 1.6 6.4 0.00 0.00 0.00 71 1021.3
20260506200044 18 0 1.6 9.7 0.00 0.00 0.00 70 1021.3
20260506194543 18 247 1.6 14.5 0.00 0.00 0.00 71 1021.3
20260506193050 18 209 3.2 14.5 0.00 0.00 0.00 72 1021.4
20260506191548 18 219 4.8 17.7 0.00 0.00 0.00 72 1021.4
20260506190050 17 192 4.8 19.3 0.00 0.00 0.00 74 1021.3
20260506184553 17 161 1.6 12.9 0.00 0.00 0.00 77 1021.4
20260506183045 16 194 4.8 11.3 0.00 0.00 0.00 77 1021.6
20260506181554 16 210 3.2 11.3 0.00 0.00 0.00 79 1021.5
20260506180045 16 180 1.6 11.3 0.00 0.00 0.00 80 1021.6
20260506174604 15 223 3.2 16.1 0.00 0.00 0.00 80 1021.2
20260506173059 15 242 0.0 4.8 0.00 0.00 0.00 82 1021.2
20260506171551 14 206 1.6 9.7 0.00 0.00 0.00 82 1021.4
20260506170104 14 287 3.2 9.7 0.00 0.00 0.00 81 1021.1
20260506164555 13 211 1.6 11.3 0.00 0.00 0.00 83 1021.4
20260506163056 13 0 1.6 8.0 0.00 0.00 0.00 83 1021.5
20260506161553 13 183 1.6 9.7 0.00 0.00 0.00 83 1021.3
20260506154556 13 182 4.8 9.7 0.00 0.00 0.00 84 1020.8
20260506153047 12 0 0.0 3.2 0.00 0.00 0.00 86 1021.3
20260506151554 12 0 0.0 6.4 0.00 0.00 0.00 88 1021.6
20260506150100 12 0 3.2 12.9 0.00 0.00 0.00 89 1021.5
20260506144544 12 236 1.6 12.9 0.00 0.00 0.00 89 1021.6
20260506143046 12 269 1.6 11.3 0.00 0.00 0.00 88 1020.9
20260506141550 12 227 1.6 12.9 0.00 0.00 0.00 87 1020.6
20260506140051 12 223 0.0 1.6 0.00 0.00 0.00 88 1020.2
20260506134556 12 0 0.0 0.0 0.00 0.00 0.00 89 1020.2
20260506133104 12 0 0.0 0.0 0.00 0.00 0.00 90 1020.2
20260506131553 12 0 0.0 0.0 0.00 0.00 0.00 90 1020.2
20260506130051 12 0 0.0 0.0 0.00 0.00 0.00 90 1020.0
20260506124550 12 0 0.0 0.0 0.00 0.00 0.00 90 1019.9
20260506123045 12 0 0.0 0.0 0.00 0.00 0.00 90 1019.9
20260506121554 12 0 0.0 0.0 0.00 0.00 0.00 91 1019.9
20260506114551 12 0 0.0 0.0 0.00 0.00 0.00 91 1019.5
20260506113045 12 0 0.0 0.0 0.00 0.00 0.00 91 1019.3
20260506111548 12 0 0.0 0.0 0.00 0.00 0.00 91 1019.1
20260506110101 12 0 0.0 1.6 0.00 0.00 0.00 91 1018.8
20260506104558 11 0 0.0 0.0 0.00 0.00 0.00 91 1018.7
20260506103048 11 0 0.0 0.0 0.00 0.00 0.00 91 1018.5
20260506101544 11 0 0.0 0.0 0.00 0.00 0.00 91 1018.4
20260506100053 11 0 0.0 1.6 0.00 0.00 0.00 91 1018.5
20260506094544 11 219 0.0 0.0 0.00 0.00 0.00 90 1018.3
20260506093046 11 0 0.0 1.6 0.00 0.00 0.00 89 1018.2
20260506091549 12 0 0.0 1.6 0.00 0.00 0.00 89 1018.1
20260506090048 12 0 0.0 0.0 0.00 0.00 0.00 89 1018.1
20260506084616 12 0 0.0 1.6 0.00 0.00 0.00 88 1017.9
20260506083045 13 0 0.0 0.0 0.00 0.00 0.00 87 1017.9
20260506081554 13 0 0.0 0.0 0.00 0.00 0.00 87 1017.9